Weather History for KTVK - May, 2013

Change the Weather History Date:

Sunday, May 26, 2013

  Actual Average Record
Temperature  
Mean Temperature 60 °F -  
Max Temperature 71 °F 74 °F 92 °F (1985)
Min Temperature 50 °F 53 °F 36 °F (1961)
Degree Days  
Heating Degree Days 4    
Growing Degree Days 10 (Base 50)    
Moisture  
Dew Point 58 °F    
Average Humidity 94    
Maximum Humidity 100    
Minimum Humidity 83    
Precipitation  
Precipitation 0.00 in - - ()
Sea Level Pressure  
Sea Level Pressure 30.07 in    
Wind  
Wind Speed 11 mph (ESE)    
Max Wind Speed 15 mph    
Max Gust Speed 30 mph    
Visibility 10 miles    
Events Rain    
Averages and records for this station are not official NWS values.
T = Trace of Precipitation, MM = Missing Value Source: NWS Daily Summary

Daily Weather History Graph

Daily Weather History Graph

Search for Another Location

Airport or City:

Trip Planner

Search our weather history database for the weather conditions in past years. The results will help you decide how hot, cold, wet, or windy it might be!

Date:

Astronomy

May. 26, 2013 Rise Set
Actual Time 5:45 AM CDT 8:32 PM CDT
Civil Twilight 5:13 AM CDT 9:04 PM CDT
Nautical Twilight 4:33 AM CDT 9:44 PM CDT
Astronomical Twilight 3:47 AM CDT 10:31 PM CDT
Moon 10:19 PM CDT (5/26) 7:15 AM CDT (5/26)
Length of Visible Light 15h 50m
Length of Day
14h 46m
Waning Gibbous, 96% of the Moon is Illuminated
May 26
Waning Gibbous
May 31
Last Quarter
Jun 8
New
Jun 16
First Quarter
Jun 23
Full

Hourly Weather History & Observations

Time (CDT) Temp. Dew Point Humidity Pressure Visibility Wind Dir Wind Speed Gust Speed Precip Events Conditions
12:15 AM 53.6 °F 51.8 °F 94% 30.15 in 10.0 mi East 12.7 mph 20.7 mph N/A   Overcast
12:35 AM 53.6 °F 51.8 °F 94% 30.15 in 10.0 mi East 13.8 mph - N/A   Overcast
12:55 AM 53.6 °F 51.8 °F 94% 30.15 in 10.0 mi ESE 10.4 mph - N/A   Overcast
1:15 AM 53.6 °F 51.8 °F 94% 30.14 in 10.0 mi ESE 9.2 mph - N/A   Overcast
1:35 AM 51.8 °F 51.8 °F 100% 30.14 in 10.0 mi ESE 12.7 mph - N/A   Overcast
1:55 AM 51.8 °F 51.8 °F 100% 30.14 in 10.0 mi East 9.2 mph - N/A   Overcast
2:15 AM 51.8 °F 51.8 °F 100% 30.14 in 10.0 mi ESE 11.5 mph - N/A   Overcast
2:35 AM 51.8 °F 51.8 °F 100% 30.13 in 10.0 mi East 12.7 mph - N/A   Overcast
2:55 AM 51.8 °F 51.8 °F 100% 30.12 in 10.0 mi East 11.5 mph 16.1 mph N/A   Mostly Cloudy
3:15 AM 51.8 °F 51.8 °F 100% 30.13 in 10.0 mi East 10.4 mph - N/A   Mostly Cloudy
3:35 AM 51.8 °F 50.0 °F 94% 30.12 in 10.0 mi East 10.4 mph - N/A   Mostly Cloudy
3:55 AM 51.8 °F 50.0 °F 94% 30.12 in 10.0 mi ESE 9.2 mph - N/A   Mostly Cloudy
4:15 AM 51.8 °F 50.0 °F 94% 30.11 in 10.0 mi ESE 12.7 mph - N/A   Scattered Clouds
4:35 AM 51.8 °F 50.0 °F 94% 30.12 in 10.0 mi SE 10.4 mph - N/A   Mostly Cloudy
4:55 AM 51.8 °F 50.0 °F 94% 30.12 in 10.0 mi ESE 9.2 mph - N/A Rain Light Rain
5:15 AM 50.0 °F 50.0 °F 100% 30.12 in 9.0 mi East 9.2 mph - N/A Rain Light Rain
5:35 AM 50.0 °F 50.0 °F 100% 30.11 in 10.0 mi East 8.1 mph - N/A   Scattered Clouds
5:55 AM 50.0 °F 50.0 °F 100% 30.10 in 10.0 mi East 8.1 mph - N/A   Clear
6:15 AM 50.0 °F 50.0 °F 100% 30.12 in 10.0 mi East 8.1 mph - N/A   Clear
6:35 AM 50.0 °F 50.0 °F 100% 30.12 in 10.0 mi East 9.2 mph - N/A   Clear
6:55 AM 50.0 °F 50.0 °F 100% 30.12 in 10.0 mi East 10.4 mph - N/A   Scattered Clouds
7:15 AM 50.0 °F 50.0 °F 100% 30.13 in 10.0 mi East 11.5 mph - N/A   Mostly Cloudy
7:35 AM 50.0 °F 50.0 °F 100% 30.14 in 10.0 mi East 12.7 mph - N/A   Overcast
7:55 AM 50.0 °F 50.0 °F 100% 30.14 in 10.0 mi East 13.8 mph 18.4 mph N/A   Overcast
8:15 AM 51.8 °F 51.8 °F 100% 30.13 in 10.0 mi East 15.0 mph 21.9 mph N/A   Overcast
8:35 AM 51.8 °F 51.8 °F 100% 30.13 in 10.0 mi East 12.7 mph - N/A   Overcast
8:55 AM 53.6 °F 53.6 °F 100% 30.12 in 10.0 mi East 12.7 mph 18.4 mph N/A   Overcast
9:15 AM 53.6 °F 53.6 °F 100% 30.12 in 10.0 mi East 11.5 mph - N/A   Overcast
9:35 AM 55.4 °F 53.6 °F 94% 30.12 in 10.0 mi East 11.5 mph - N/A   Overcast
9:55 AM 57.2 °F 55.4 °F 94% 30.12 in 10.0 mi East 12.7 mph - N/A   Mostly Cloudy
10:15 AM 57.2 °F 55.4 °F 94% 30.12 in 10.0 mi East 13.8 mph 17.3 mph N/A   Mostly Cloudy
10:35 AM 57.2 °F 55.4 °F 94% 30.12 in 10.0 mi East 12.7 mph - N/A   Scattered Clouds
10:55 AM 59.0 °F 57.2 °F 94% 30.11 in 10.0 mi ESE 15.0 mph - N/A   Partly Cloudy
11:15 AM 60.8 °F 57.2 °F 88% 30.10 in 10.0 mi ESE 13.8 mph 17.3 mph N/A   Clear
11:35 AM 62.6 °F 59.0 °F 88% 30.10 in 10.0 mi ESE 11.5 mph - N/A   Clear
11:55 AM 62.6 °F 59.0 °F 88% 30.10 in 10.0 mi SE 9.2 mph - N/A   Clear
12:15 PM 64.4 °F 60.8 °F 88% 30.10 in 10.0 mi SE 9.2 mph - N/A   Clear
12:35 PM 64.4 °F 60.8 °F 88% 30.10 in 10.0 mi ESE 8.1 mph - N/A   Clear
12:55 PM 66.2 °F 60.8 °F 83% 30.10 in 10.0 mi ENE 8.1 mph - N/A   Scattered Clouds
1:15 PM 66.2 °F 62.6 °F 88% 30.10 in 10.0 mi East 9.2 mph - N/A   Partly Cloudy
1:35 PM 68.0 °F 62.6 °F 83% 30.08 in 10.0 mi ESE 11.5 mph - N/A   Clear
1:55 PM 68.0 °F 64.4 °F 88% 30.06 in 10.0 mi East 15.0 mph - N/A   Clear
2:15 PM 68.0 °F 64.4 °F 88% 30.05 in 10.0 mi ESE 12.7 mph - N/A   Clear
2:35 PM 69.8 °F 64.4 °F 83% 30.05 in 10.0 mi ESE 10.4 mph 16.1 mph N/A   Clear
2:55 PM 69.8 °F 64.4 °F 83% 30.06 in 10.0 mi East 8.1 mph - N/A   Clear
3:15 PM 69.8 °F 64.4 °F 83% 30.05 in 10.0 mi East 11.5 mph - N/A   Partly Cloudy
3:35 PM 71.6 °F 66.2 °F 83% 30.04 in 10.0 mi ESE 10.4 mph - N/A   Partly Cloudy
3:55 PM 71.6 °F 66.2 °F 83% 30.03 in 10.0 mi ESE 12.7 mph - N/A   Clear
4:15 PM 71.6 °F 66.2 °F 83% 30.02 in 10.0 mi ESE 13.8 mph - N/A   Clear
4:35 PM 71.6 °F 66.2 °F 83% 30.01 in 10.0 mi ESE 9.2 mph - N/A   Scattered Clouds
4:55 PM 71.6 °F 66.2 °F 83% 30.01 in 10.0 mi East 11.5 mph - N/A   Mostly Cloudy
5:15 PM 71.6 °F 66.2 °F 83% 29.99 in 10.0 mi East 13.8 mph - N/A   Scattered Clouds
5:35 PM 71.6 °F 66.2 °F 83% 30.00 in 10.0 mi East 9.2 mph - N/A   Scattered Clouds
5:55 PM 68.0 °F 64.4 °F 88% 30.00 in 10.0 mi East 11.5 mph - N/A   Overcast
6:15 PM 68.0 °F 66.2 °F 94% 30.00 in 10.0 mi East 10.4 mph - N/A   Mostly Cloudy
6:35 PM 68.0 °F 64.4 °F 88% 30.00 in 10.0 mi East 11.5 mph - N/A   Scattered Clouds
6:55 PM 68.0 °F 64.4 °F 88% 29.99 in 10.0 mi East 9.2 mph - N/A   Clear
7:15 PM 68.0 °F 64.4 °F 88% 29.99 in 10.0 mi ENE 8.1 mph - N/A   Clear
7:35 PM 66.2 °F 66.2 °F 100% 30.00 in 10.0 mi NE 6.9 mph - N/A   Mostly Cloudy
7:55 PM 66.2 °F 64.4 °F 94% 30.00 in 10.0 mi ENE 9.2 mph - N/A   Overcast
8:15 PM 64.4 °F 64.4 °F 100% 29.99 in 10.0 mi ENE 10.4 mph - N/A   Overcast
8:35 PM 64.4 °F 64.4 °F 100% 30.02 in 10.0 mi North 8.1 mph - N/A   Overcast
8:55 PM 62.6 °F 62.6 °F 100% 30.05 in 10.0 mi North 12.7 mph 29.9 mph N/A Rain Light Rain
9:15 PM 66.2 °F 62.6 °F 88% 30.05 in 10.0 mi NNW 4.6 mph - N/A Rain Light Rain
9:35 PM 64.4 °F 64.4 °F 100% 29.98 in 3.0 mi SSE 15.0 mph 19.6 mph N/A Rain Light Rain
9:55 PM 64.4 °F 64.4 °F 100% 29.98 in 10.0 mi ESE 4.6 mph - N/A Rain Light Rain
10:15 PM 64.4 °F 64.4 °F 100% 29.98 in 10.0 mi East 11.5 mph - N/A Rain Light Rain
10:35 PM 64.4 °F 64.4 °F 100% 29.96 in 10.0 mi ESE 10.4 mph - N/A Rain Light Rain
10:55 PM 62.6 °F 62.6 °F 100% 29.96 in 10.0 mi SSE 15.0 mph 20.7 mph N/A Rain Light Rain
11:15 PM 62.6 °F 62.6 °F 100% 29.93 in 10.0 mi SSE 13.8 mph - N/A Rain Light Rain
11:35 PM 62.6 °F 62.6 °F 100% 29.95 in 10.0 mi South 10.4 mph - N/A   Partly Cloudy
11:55 PM 62.6 °F 62.6 °F 100% 29.94 in 10.0 mi South 10.4 mph - N/A   Clear